Weather History for KSPF - July, 2013

Change the Weather History Date:

Saturday, July 13, 2013

  Actual Average (KEFC) Record (KEFC)
Temperature  
Mean Temperature 72 °F -  
Max Temperature 84 °F 89 °F 103 °F (1983)
Min Temperature 59 °F 57 °F 37 °F (1950)
Cooling Degree Days 6    
Growing Degree Days 22 (Base 50)    
Moisture  
Dew Point 61 °F    
Average Humidity 67    
Maximum Humidity 88    
Minimum Humidity 51    
Precipitation  
Precipitation 0.00 in - - ()
Sea Level Pressure  
Sea Level Pressure 30.03 in    
Wind  
Wind Speed 7 mph (ESE)    
Max Wind Speed 28 mph    
Max Gust Speed 33 mph    
Visibility 10 miles    
Events Thunderstorm    
Averages and records for this station are not official NWS values.
T = Trace of Precipitation, MM = Missing Value Source: NWS Daily Summary

Daily Weather History Graph

Daily Weather History Graph

Search for Another Location

Airport or City:

Trip Planner

Search our weather history database for the weather conditions in past years. The results will help you decide how hot, cold, wet, or windy it might be!

Date:

Astronomy

Jul. 13, 2013 Rise Set
Actual Time 6:23 AM CDT 9:38 PM CDT
Civil Twilight 5:47 AM CDT 10:13 PM CDT
Nautical Twilight 5:01 AM CDT 10:59 PM CDT
Astronomical Twilight 4:04 AM CDT 11:56 PM CDT
Moon 11:56 AM CDT (7/13) No Moon Set
Length of Visible Light 16h 26m
Length of Day
15h 15m
Waxing Crescent, 26% of the Moon is Illuminated
Jul 13
Waxing Crescent
Jul 15
First Quarter
Jul 22
Full
Jul 29
Last Quarter
Aug 6
New

Hourly Weather History & Observations

Time (CDT) Temp. Heat Index Dew Point Humidity Pressure Visibility Wind Dir Wind Speed Gust Speed Precip Events Conditions
12:15 AM 64.4 °F - 59.0 °F 83% 30.04 in 10.0 mi SE 4.6 mph - N/A   Mostly Cloudy
12:35 AM 64.4 °F - 59.0 °F 83% 30.04 in 10.0 mi ESE 3.5 mph - N/A   Overcast
12:55 AM 64.4 °F - 60.8 °F 88% 30.04 in 10.0 mi ESE 5.8 mph - N/A   Overcast
1:15 AM 64.4 °F - 60.8 °F 88% 30.04 in 10.0 mi ESE 5.8 mph - N/A   Overcast
1:35 AM 64.4 °F - 59.0 °F 83% 30.04 in 10.0 mi ESE 6.9 mph - N/A   Overcast
1:55 AM 66.2 °F - 59.0 °F 78% 30.03 in 10.0 mi SE 5.8 mph - N/A   Overcast
2:15 AM 66.2 °F - 59.0 °F 78% 30.03 in 10.0 mi ESE 6.9 mph - N/A   Overcast
2:55 AM 66.2 °F - 59.0 °F 78% 30.03 in 10.0 mi SE 4.6 mph - N/A   Unknown
3:15 AM 66.2 °F - 59.0 °F 78% 30.03 in 10.0 mi East 6.9 mph - N/A   Unknown
3:35 AM 66.2 °F - 59.0 °F 78% 30.03 in 10.0 mi East 6.9 mph - N/A   Unknown
3:55 AM 64.4 °F - 57.2 °F 77% 30.02 in 10.0 mi East 6.9 mph - N/A   Unknown
4:15 AM 64.4 °F - 57.2 °F 77% 30.01 in 10.0 mi SE 6.9 mph - N/A   Unknown
4:35 AM 62.6 °F - 57.2 °F 82% 30.01 in 10.0 mi ESE 6.9 mph - N/A   Unknown
4:55 AM 60.8 °F - 55.4 °F 82% 30.01 in 10.0 mi East 6.9 mph - N/A   Unknown
5:15 AM 62.6 °F - 55.4 °F 77% 30.01 in 10.0 mi SE 6.9 mph - N/A   Unknown
5:35 AM 62.6 °F - 55.4 °F 77% 30.01 in 10.0 mi East 6.9 mph - N/A   Unknown
5:55 AM 60.8 °F - 55.4 °F 82% 30.02 in 10.0 mi South 4.6 mph - N/A   Unknown
6:15 AM 59.0 °F - 55.4 °F 88% 30.02 in 10.0 mi SW 4.6 mph - N/A   Unknown
6:35 AM 62.6 °F - 55.4 °F 77% 30.02 in 10.0 mi SSW 8.1 mph - N/A   Unknown
6:55 AM 62.6 °F - 57.2 °F 82% 30.02 in 10.0 mi Calm Calm - N/A   Unknown
7:15 AM 64.4 °F - 59.0 °F 83% 30.02 in 10.0 mi Calm Calm - N/A   Unknown
7:35 AM 64.4 °F - 59.0 °F 83% 30.02 in 10.0 mi Calm Calm - N/A   Unknown
7:55 AM 66.2 °F - 59.0 °F 78% 30.02 in 10.0 mi ESE 3.5 mph - N/A   Unknown
8:15 AM 66.2 °F - 59.0 °F 78% 30.02 in 10.0 mi Calm Calm - N/A   Unknown
8:35 AM 68.0 °F - 59.0 °F 73% 30.02 in 10.0 mi NE 3.5 mph - N/A   Unknown
8:55 AM 71.6 °F - 60.8 °F 69% 30.02 in 10.0 mi North 3.5 mph - N/A   Unknown
9:15 AM 73.4 °F - 60.8 °F 65% 30.02 in 10.0 mi Calm Calm - N/A   Unknown
9:35 AM 75.2 °F - 62.6 °F 65% 30.03 in 10.0 mi Calm Calm - N/A   Unknown
9:55 AM 77.0 °F - 62.6 °F 61% 30.02 in 10.0 mi NE 9.2 mph - N/A   Unknown
10:15 AM 77.0 °F - 62.6 °F 61% 30.02 in 10.0 mi ENE 8.1 mph - N/A   Unknown
10:35 AM 77.0 °F - 62.6 °F 61% 30.02 in 10.0 mi ENE 8.1 mph - N/A   Unknown
10:55 AM 78.8 °F - 64.4 °F 61% 30.02 in 10.0 mi East 8.1 mph - N/A   Unknown
11:15 AM 80.6 °F 81.8 °F 62.6 °F 54% 30.01 in 10.0 mi East 10.4 mph - N/A   Unknown
11:35 AM 80.6 °F 82.3 °F 64.4 °F 58% 30.01 in 10.0 mi East 16.1 mph 21.9 mph N/A   Unknown
11:55 AM 80.6 °F 82.3 °F 64.4 °F 58% 30.01 in 10.0 mi East 15.0 mph 19.6 mph N/A   Unknown
12:15 PM 82.4 °F 83.9 °F 64.4 °F 54% 30.01 in 10.0 mi East 16.1 mph - N/A   Unknown
12:35 PM 82.4 °F 83.9 °F 64.4 °F 54% 30.01 in 10.0 mi East 11.5 mph 20.7 mph N/A   Unknown
12:55 PM 82.4 °F 83.9 °F 64.4 °F 54% 30.01 in 10.0 mi East 13.8 mph 20.7 mph N/A   Unknown
1:15 PM 82.4 °F 83.9 °F 64.4 °F 54% 30.01 in 10.0 mi East 13.8 mph - N/A   Unknown
1:35 PM 84.2 °F 86.6 °F 66.2 °F 55% 30.00 in 10.0 mi East 12.7 mph - N/A   Unknown
1:55 PM 84.2 °F 86.6 °F 66.2 °F 55% 30.00 in 10.0 mi East 11.5 mph 17.3 mph N/A   Unknown
2:15 PM 84.2 °F 86.6 °F 66.2 °F 55% 30.00 in 10.0 mi ESE 11.5 mph - N/A   Unknown
2:35 PM 84.2 °F 86.6 °F 66.2 °F 55% 30.00 in 10.0 mi East 10.4 mph - N/A   Unknown
2:55 PM 84.2 °F 86.6 °F 66.2 °F 55% 30.00 in 10.0 mi ESE 9.2 mph - N/A Thunderstorm Unknown
3:15 PM 84.2 °F 87.3 °F 68.0 °F 58% 30.01 in 10.0 mi SE 20.7 mph 24.2 mph N/A Thunderstorm Unknown
3:35 PM 82.4 °F 83.4 °F 62.6 °F 51% 30.02 in 10.0 mi ESE 17.3 mph 23.0 mph N/A Thunderstorm Unknown
3:55 PM 80.6 °F 81.8 °F 62.6 °F 54% 30.01 in 10.0 mi SE 12.7 mph - N/A Thunderstorm Unknown
4:15 PM 78.8 °F - 62.6 °F 57% 30.02 in 10.0 mi SE 9.2 mph - N/A   Unknown
4:35 PM 77.0 °F - 62.6 °F 61% 30.02 in 10.0 mi ESE 8.1 mph - N/A   Unknown
4:55 PM 80.6 °F 82.3 °F 64.4 °F 58% 30.01 in 10.0 mi SE 6.9 mph - N/A   Unknown
5:15 PM 82.4 °F 83.4 °F 62.6 °F 51% 30.01 in 10.0 mi SE 10.4 mph - N/A   Unknown
5:35 PM 84.2 °F 85.6 °F 64.4 °F 51% 30.00 in 10.0 mi SE 11.5 mph - N/A   Unknown
5:55 PM 82.4 °F 83.9 °F 64.4 °F 54% 30.00 in 10.0 mi SE 8.1 mph - N/A   Unknown
6:15 PM 82.4 °F 84.6 °F 66.2 °F 58% 30.00 in 10.0 mi SE 5.8 mph - N/A   Unknown
6:35 PM 75.2 °F - 60.8 °F 61% 30.03 in 9.0 mi NNW 27.6 mph 33.4 mph N/A Thunderstorm Unknown
6:55 PM 73.4 °F - 59.0 °F 61% 30.04 in 10.0 mi North 24.2 mph 32.2 mph N/A Thunderstorm Thunderstorm
7:15 PM 73.4 °F - 57.2 °F 57% 30.04 in 10.0 mi South 9.2 mph 23.0 mph N/A Thunderstorm Unknown
7:35 PM 71.6 °F - 64.4 °F 78% 30.02 in 10.0 mi SSW 5.8 mph - N/A Thunderstorm Thunderstorm
7:55 PM 73.4 °F - 62.6 °F 69% 30.03 in 10.0 mi SSE 20.7 mph 29.9 mph N/A Thunderstorm Unknown
8:15 PM 73.4 °F - 60.8 °F 65% 30.02 in 10.0 mi South 13.8 mph 18.4 mph N/A Thunderstorm Unknown
8:35 PM 73.4 °F - 62.6 °F 69% 30.03 in 10.0 mi South 6.9 mph - N/A   Unknown
8:55 PM 75.2 °F - 59.0 °F 57% 30.03 in 10.0 mi SSE 4.6 mph - N/A   Unknown
9:15 PM 75.2 °F - 60.8 °F 61% 30.03 in 10.0 mi South 9.2 mph - N/A   Unknown
9:35 PM 75.2 °F - 60.8 °F 61% 30.03 in 10.0 mi SSW 12.7 mph - N/A   Unknown
9:55 PM 73.4 °F - 62.6 °F 69% 30.05 in 10.0 mi Calm Calm - N/A   Unknown
10:15 PM 75.2 °F - 60.8 °F 61% 30.05 in 10.0 mi Calm Calm - N/A   Unknown
10:35 PM 73.4 °F - 60.8 °F 65% 30.06 in 10.0 mi NNE 3.5 mph - N/A   Unknown
10:55 PM 73.4 °F - 62.6 °F 69% 30.07 in 10.0 mi NNE 10.4 mph - N/A   Unknown
11:15 PM 71.6 °F - 62.6 °F 73% 30.10 in 10.0 mi NNW 9.2 mph - N/A   Unknown
11:35 PM 71.6 °F - 60.8 °F 69% 30.13 in 10.0 mi NW 6.9 mph - N/A   Unknown
11:55 PM 68.0 °F - 60.8 °F 78% 30.15 in 10.0 mi NNW 4.6 mph - N/A   Unknown